This is the latest recevied weather packets stored in our database for station/object N5ATR. If no packets are shown the sender has not sent any weather packets the latest 10 day(s).
| Time | Temp. | Humidity | Pressure | Rain* | Wind** | Luminosity | Snow |
|---|---|---|---|---|---|---|---|
| 1777368044 | 7.78° C | 24% | 1014.5 hPa | 0 mm | - | 0 W/m² | - |
| 1777367741 | 7.78° C | 24% | 1014.3 hPa | 0 mm | - | 0 W/m² | - |
| 1777367437 | 7.78° C | 24% | 1014.5 hPa | 0 mm | - | 0 W/m² | - |
| 1777367137 | 8.33° C | 23% | 1014.4 hPa | 0 mm | - | 0 W/m² | - |
| 1777366832 | 8.33° C | 23% | 1014.1 hPa | 0 mm | - | 0 W/m² | - |
| 1777366527 | 8.33° C | 23% | 1014 hPa | 0 mm | - | 0 W/m² | - |
| 1777366221 | 8.33° C | 23% | 1014.3 hPa | 0 mm | - | 0 W/m² | - |
| 1777365918 | 8.33° C | 23% | 1014.3 hPa | 0 mm | - | 0 W/m² | - |
| 1777365615 | 8.33° C | 23% | 1014.4 hPa | 0 mm | - | 0 W/m² | - |
| 1777365314 | 8.89° C | 22% | 1014.4 hPa | 0 mm | - | 0 W/m² | - |
| 1777365012 | 8.89° C | 22% | 1014.5 hPa | 0 mm | - | 0 W/m² | - |
| 1777364709 | 8.89° C | 22% | 1014.4 hPa | 0 mm | - | 0 W/m² | - |
| 1777364404 | 8.89° C | 22% | 1014.1 hPa | 0 mm | - | 0 W/m² | - |
| 1777364100 | 9.44° C | 22% | 1014.4 hPa | 0 mm | - | 0 W/m² | - |
| 1777363797 | 9.44° C | 22% | 1014.3 hPa | 0 mm | - | 0 W/m² | - |
| 1777363493 | 8.89° C | 22% | 1014.4 hPa | 0 mm | - | 0 W/m² | - |
| 1777363190 | 8.89° C | 22% | 1014.4 hPa | 0 mm | - | 0 W/m² | - |
| 1777362887 | 8.89° C | 22% | 1014.6 hPa | 0 mm | - | 0 W/m² | - |
| 1777362585 | 9.44° C | 21% | 1014.4 hPa | 0 mm | - | 0 W/m² | - |
| 1777362283 | 10° C | 21% | 1014.3 hPa | 0 mm | - | 0 W/m² | - |
| 1777361979 | 10° C | 20% | 1014.4 hPa | 0 mm | - | 0 W/m² | - |
| 1777361677 | 10° C | 20% | 1014.6 hPa | 0 mm | - | 0 W/m² | - |
| 1777361374 | 10° C | 20% | 1014.5 hPa | 0 mm | - | 0 W/m² | - |
| 1777361071 | 9.44° C | 20% | 1014.6 hPa | 0 mm | - | 0 W/m² | - |
| 1777360769 | 9.44° C | 20% | 1014.6 hPa | 0 mm | - | 0 W/m² | - |
* Rain latest hour (hover to see other rain measurements)
** Current wind speed in m/s (hover to see current wind gust speed)